Tracking 18987 objects as of 25-Feb-2018
HD Live streaming from Space Station
objects crossing your sky now

COSMOS 614

Track COSMOS 614 now!
10-day predictions
COSMOS 614 is classified as:


NORAD ID: 6965
Int'l Code: 1973-098A
Perigee: 752.3 km
Apogee: 785.9 km
Inclination: 74.1 °
Period: 100.1 minutes
Semi major axis: 7140 km
RCS: 2.1152 m2 (large)
Launch date: December 4, 1973
Source: Commonwealth of Independent States (former USSR) (CIS)
Launch site: PLESETSK MISSILE AND SPACE COMPLEX (PKMTR)
aabbcc
Your satellite tracking list
Your tracking list is empty




NASA's NSSDC Master Catalog

Two Line Element Set (TLE):
1  6965U 73098A   18055.57383664 +.00000026 +00000-0 +16850-4 0  9996
2  6965 074.0552 229.1007 0023528 200.5333 159.4878 14.38945928317745
Source of the keplerian elements: AFSPC